Weather Roundup
Issued by NWS

Home | Current Version | Previous Version | Graphics & Text | Print | Product List | Glossary Off
Versions: 1 2 3 4 5 6 7 8 9 10 11 12 13 14 15 16 17 18 19 20 21 22 23 24 25 26 27 28 29 30 31 32 33 34 35 36 37 38 39 40 41 42 43 44 45 46 47 48 49 50

000
NZUS93 KARX 270810
HRRWXR

CURRENT HOURLY OBSERVATIONS ACROSS
MUCH OF THE UPPER MISSISSIPPI VALLEY
NATIONAL WEATHER SERVICE LA CROSSE WI
300 AM CDT WED AUG 27 2014


...SOUTHEAST MINNESOTA...


CITY           SKY/WX    TMP DP  RH WIND       PRES   REMARKS
ROCHESTER      CLOUDY    61  57  87 CALM      30.20F
ROCHESTER/MAYO CLOUDY    63  55  77 CALM      30.19S
WINONA         MOCLDY    61  59  94 CALM      30.18S
AUSTIN         MOCLDY    57  57 100 CALM      30.17F
ALBERT LEA     MOCLDY    61  59  94 CALM      30.17F
DODGE CENTER   CLOUDY    63  61  94 CALM      30.19S
PRESTON        PTCLDY    60  58  94 CALM      30.19S
OWATONNA       CLOUDY    63  59  88 CALM      30.19R
FARIBAULT      CLOUDY    64  57  77 N3        30.19S
$$

...ELSEWHERE IN MINNESOTA...


CITY           SKY/WX    TMP DP  RH WIND       PRES   REMARKS
MINNEAPOLIS    MOCLDY    62  57  83 CALM      30.20R
INTNL FALLS    CLEAR     37  36  96 CALM      30.19S
DULUTH         MOCLDY    53  49  86 N3        30.19F
RED WING       LGT RAIN  63  55  77 CALM      30.18R
REDWOOD FALLS  CLOUDY    63  57  81 NE3       30.18F
MANKATO        CLOUDY    63  55  77 N6        30.18S
WORTHINGTON    CLOUDY    57  55  94 CALM      30.20S
FAIRMONT       PTCLDY    55  52  88 CALM      30.18R
$$

...SOUTHWEST WISCONSIN...


CITY           SKY/WX    TMP DP  RH WIND       PRES   REMARKS
LA CROSSE      CLOUDY    64  59  83 CALM      30.17S
PRAIRIE DU CHI MOCLDY    63  58  81 CALM      30.16R
BOSCOBEL       CLOUDY    63  60  90 CALM      30.16S
LONE ROCK      CLOUDY    69  58  67 CALM      30.16R
PLATTEVILLE    CLOUDY    64  61  90 CALM      30.17R
FORT MC COY    CLOUDY    57  56  96 CALM      30.18S
CAMP DOUGLAS   CLOUDY    58  58 100 CALM      30.17S
VIROQUA        CLOUDY    60  59  96 N5        30.18S
WIS DELLS      CLOUDY    62  56  81 CALM      30.16F
$$

...ELSEWHERE IN WISCONSIN...


CITY           SKY/WX    TMP DP  RH WIND       PRES   REMARKS
MILWAUKEE      CLOUDY    67  57  70 NW3       30.13R
MADISON        CLOUDY    63  59  87 N3        30.16R
GREEN BAY      CLOUDY    59  55  87 N6        30.16R
EAU CLAIRE     LGT RAIN  61  59  93 CALM      30.18S
BLACK RVR FLS  CLOUDY    59  59 100 CALM      30.17S
MEDFORD        LGT RAIN  56  55  95 CALM      30.18S
WAUSAU         CLOUDY    59  55  87 CALM      30.17R
WIS RAPIDS     CLOUDY    62  55  77 N6        30.19R
MARSHFIELD     CLOUDY    62  53  72 N3        30.18R
RICE LAKE      CLOUDY    58  55  90 NW3       30.21S
$$

...NORTHEAST IOWA...


CITY           SKY/WX    TMP DP  RH WIND       PRES   REMARKS
WATERLOO       MOCLDY    63  59  87 NE3       30.14S
DUBUQUE        CLOUDY    65  60  84 NE7       30.16R
DECORAH        MOCLDY    61  57  88 CALM      30.17S
MASON CITY     CLEAR     57  56  96 N6        30.19S
CHARLES CITY   CLEAR     61  59  94 NE6       30.18S
OELWEIN        MOCLDY    63  59  88 NE6       30.17S
$$

...ELSEWHERE IN IOWA...


CITY           SKY/WX    TMP DP  RH WIND       PRES   REMARKS
DES MOINES     MOCLDY    71  63  75 E6        30.12F
IOWA CITY      CLOUDY    69  66  90 CALM      30.14F
FORT DODGE     CLOUDY    63  61  94 NE3       30.16S
MARSHALLTOWN   CLOUDY    65  63  93 NE3       30.14S
CEDAR RAPIDS   CLOUDY    68  63  84 E3        30.13F
$$

...NORTHERN ILLINOIS...


CITY           SKY/WX    TMP DP  RH WIND       PRES   REMARKS
CHICAGO-OHARE  MOCLDY    71  63  75 N3        30.11S
DUPAGE         MOCLDY    68  64  87 N7        30.12S
CHICAGO-MIDWAY MOCLDY    73  66  78 N5        30.11R
MOLINE         CLOUDY    72  65  78 CALM      30.12F
ROCKFORD       CLOUDY    68  59  73 NE8       30.15R
STERLING       CLOUDY    70  64  83 N5        30.14R
PEORIA         MOCLDY    75  67  76 NE6       30.11R
$$

NOTE: "FAIR" INDICATES FEW OR NO CLOUDS BELOW 12,000 FEET WITH NO
SIGNIFICANT WEATHER AND/OR OBSTRUCTIONS TO VISIBILITY. WIND
SPEEDS ARE IN MILES-PER-HOUR.



USA.gov is the U.S. government's official web portal to all federal, state and local government web resources and services.